Location: Arcueil
(48.7999°N, 2.3326°E)
Time: 19:25:27
(UTC+00:00)

JY1SAT - Pass Details

Date: 26 June 2024
Orbit: 535 x 549 km, 97.5° (Epoch: 18 July)

Event Time Altitude Azimuth Distance (km) Brightness Sun altitude
Exits shadow 20:41:40 - 167° (SSE) 2,333 ? -6.1°
Reaches altitude 10° 20:42:53 10° 168° (SSE) 1,823 ? -6.3°
Maximum altitude 20:46:50 84° 255° (WSW) 563 ? -6.7°
Drops below altitude 10° 20:50:50 10° 346° (NNW) 1,844 ? -7.1°
Sets 20:52:59 0° 347° (NNW) 2,744 ? -7.4°
